Temperature
15 15 15 15 15 14 14 14 14 14 14 14 14 14 14 14 13 14 14 14 14 14 14 14 14 15 15 15 15 16 16 16 16 17 16 16 16 16 16 16 16 16 15
14 14 14 14 14 14 14 14 13 13 13 13 13 13 13 13 13 13 13 13 13 13 14 14 14 14 14 15 15 15 15 16 16 16 16 16 16 15 15 15 15 15 15
14 14 14 13 13 13 13 13 13 12 12 12 12 12 12 12 12 13 13 13 13 13 13 13 13 13 14 14 14 14 15 15 16 16 16 16 16 15 15 15 15 15 15
13 13 13 13 13 12 12 12 12 12 12 12 12 12 12 12 12 12 12 12 12 12 12 12 13 13 13 13 14 14 14 15 15 15 16 16 15 15 15 15 15 15 15
13 13 12 12 12 12 12 12 12 12 12 12 11 12 12 12 12 12 12 12 12 12 12 12 12 12 12 13 13 13 14 14 15 15 15 15 15 15 15 15 14 14 14
12 12 12 12 12 12 12 11 11 11 11 11 11 11 11 12 12 12 12 11 11 11 11 11 11 12 12 12 12 12 13 13 14 14 14 15 15 15 15 14 14 14 14
11 11 11 11 11 11 11 11 11 11 11 11 11 11 11 11 12 12 11 11 11 11 11 11 11 11 11 12 12 12 12 13 13 13 14 14 14 14 14 14 14 14 14
11 11 11 11 11 11 11 11 11 11 11 11 11 11 11 11 11 11 11 11 11 11 11 11 11 11 11 11 11 11 12 12 12 13 13 13 13 14 14 14 13 13 13
11 11 10 10 10 10 10 10 10 10 10 10 10 10 10 11 11 11 11 11 11 11 11 11 11 11 11 11 11 11 11 11 12 12 12 12 13 13 13 13 13 13 13
10 10 10 10 10 10 10 10 10 10 10 10 10 10 10 10 10 11 11 11 11 11 11 11 11 11 11 11 11 11 11 11 11 12 12 12 12 12 12 12 12 12 12
10 10 10 10 10 10 10 10 9 9 9 9 9 9 9 9 10 10 10 11 11 11 10 10 10 11 11 11 11 11 11 12 12 12 12 12 12 12 12 12 12 12 12
10 10 10 10 9 9 9 9 9 9 9 9 9 9 9 9 9 9 10 10 10 10 10 10 10 10 10 11 11 11 11 12 12 12 12 12 12 12 12 12 12 12 12
10 9 9 9 9 9 9 9 9 9 9 9 9 8 8 8 8 9 9 9 9 9 9 10 10 10 10 10 10 11 11 11 11 12 12 12 12 12 12 12 12 12 11
9 9 9 9 9 9 9 9 8 8 8 8 8 8 8 8 8 8 8 8 8 9 9 9 9 9 10 10 10 10 10 11 11 11 11 11 12 12 12 12 12 12 11
9 9 9 9 9 9 9 9 8 8 8 8 8 8 8 8 8 8 8 8 8 8 8 8 8 9 9 9 9 9 10 10 10 11 11 11 11 12 12 12 12 12 12
10 10 10 9 9 9 9 9 9 9 9 9 8 8 8 8 8 7 7 7 8 8 8 8 8 8 8 8 8 9 9 9 9 10 10 10 11 11 11 11 12 12 12
10 10 10 10 10 10 9 9 9 9 9 9 9 9 8 8 8 8 8 8 8 8 8 8 8 8 8 8 8 8 8 8 8 9 9 9 10 10 10 11 11 12 12
10 10 11 10 11 11 10 10 10 10 10 9 9 9 8 8 8 8 8 8 8 8 8 8 8 7 7 7 7 7 7 7 7 8 8 8 9 9 10 10 10 10 11
10 11 11 11 11 11 11 11 11 11 11 10 10 9 9 8 8 8 8 8 8 8 8 8 7 7 7 7 6 6 6 6 7 7 7 7 8 8 8 9 9 10 10
10 11 11 11 11 12 12 12 12 12 12 11 11 10 9 9 9 9 8 8 8 8 8 7 7 7 6 6 6 6 6 6 6 6 6 6 6 7 7 7 8 9 9
11 11 11 11 11 12 12 12 12 12 12 11 11 10 10 9 9 9 9 8 8 7 7 6 6 6 6 5 5 5 5 5 5 5 5 5 5 5 6 6 7 7 8
11 11 11 11 11 12 12 12 12 12 11 11 11 10 10 9 9 9 8 8 7 7 6 6 5 5 5 4 4 4 4 4 4 4 4 4 4 4 5 5 5 6 6
11 11 12 12 12 12 12 11 11 11 11 11 11 10 10 9 9 8 8 7 7 6 5 5 5 4 4 3 3 3 3 3 3 3 3 3 3 3 4 4 4 4 5
11 11 12 12 12 12 12 11 11 11 11 11 10 10 9 9 8 8 7 7 6 6 5 4 4 4 3 3 3 2 2 2 2 2 2 2 2 2 2 3 3 3 4
11 12 12 12 12 12 12 12 11 11 11 10 10 9 9 9 8 8 7 7 6 5 5 4 4 3 3 3 2 2 2 2 2 2 2 1 1 1 2 2 2 2 2
11 12 12 12 12 12 12 12 11 11 11 10 10 9 9 8 8 8 7 6 6 5 4 4 4 3 3 2 2 2 2 2 1 1 1 1 1 1 1 1 1 1 2
Wind_Speed
4 5 5 4 4 5 5 5 4 4 4 4 4 4 5 5 4 4 5 6 6 6 6 6 6 6 5 6 6 6 6 6 8 6 3 4 5 7 6 8 11 11 11
3 3 4 4 3 4 5 4 4 3 4 4 5 5 5 5 5 5 6 6 6 6 6 6 7 7 7 6 6 6 6 7 7 8 5 4 5 7 7 6 7 11 11
2 2 3 3 4 4 4 3 3 4 4 5 6 6 6 6 6 7 7 6 6 6 6 6 6 7 8 7 8 6 6 7 6 7 6 4 4 6 7 7 6 5 8
1 1 2 2 2 3 3 3 3 4 4 5 5 5 5 6 8 9 9 6 5 5 5 5 5 6 7 8 7 7 7 6 5 5 5 4 4 6 7 6 5 4 4
2 2 2 2 2 2 2 3 3 4 4 5 5 5 6 6 8 8 9 7 6 5 5 4 3 4 4 5 6 7 8 6 4 3 3 3 4 5 7 6 5 4 2
3 3 3 3 3 3 2 1 2 3 4 4 4 5 7 7 8 11 9 7 6 6 6 5 2 5 7 6 5 5 7 7 6 4 2 0 1 3 4 5 5 4 3
2 3 4 3 3 2 2 3 3 4 4 5 5 5 6 5 9 11 13 8 5 6 7 7 7 8 10 9 6 4 6 11 10 6 6 5 3 2 2 4 4 4 3
1 2 3 3 2 3 3 4 4 4 4 5 5 5 5 6 9 11 14 6 4 6 7 8 7 7 10 10 5 4 6 7 9 7 6 6 5 5 3 1 3 3 3
2 2 3 3 2 2 3 3 3 4 4 5 5 6 5 6 10 12 13 5 1 4 6 7 8 7 13 15 8 6 5 2 4 7 6 4 5 6 5 2 2 3 2
3 3 3 2 2 2 2 2 2 2 3 4 5 6 7 7 10 14 14 6 4 2 4 5 10 10 13 14 8 8 8 7 7 2 1 1 1 3 5 5 3 1 1
3 4 3 3 2 2 2 2 1 2 3 4 5 5 6 7 9 12 13 8 8 6 4 4 6 12 13 14 9 5 6 7 7 6 2 2 2 3 4 5 4 3 2
3 3 3 2 2 4 4 3 3 3 3 4 4 5 4 5 7 9 11 10 9 6 6 5 5 11 13 13 9 11 14 11 5 6 4 4 4 4 4 4 3 3 3
3 3 3 3 4 4 3 3 3 3 3 3 4 4 4 4 5 8 9 9 11 6 5 6 8 10 11 8 8 13 11 6 5 6 5 3 2 1 1 2 2 1 2
3 3 3 3 4 4 3 3 3 3 3 3 4 4 4 4 5 5 6 6 7 7 7 7 7 7 6 7 8 7 5 5 5 4 4 3 3 1 1 1 2 3 3
3 3 3 4 4 4 4 4 4 4 3 3 4 3 3 3 1 2 3 4 5 6 8 6 4 4 4 5 6 6 6 7 7 7 5 5 4 4 3 1 1 1 1
4 4 4 4 5 5 6 5 5 4 4 4 3 4 3 4 5 2 3 6 8 8 6 5 4 3 3 4 5 5 5 7 7 8 8 7 6 5 4 3 2 2 1
4 3 4 5 6 6 6 6 6 4 3 4 5 5 4 6 7 7 7 8 10 7 4 5 3 2 2 3 3 3 4 5 6 7 7 8 7 6 5 4 4 3 2
4 4 4 4 5 6 6 6 7 8 8 7 9 11 10 9 10 10 8 6 8 6 6 6 3 1 1 2 2 3 4 4 4 5 6 7 7 8 7 6 5 5 3
6 4 4 3 4 4 4 5 5 5 4 6 8 9 11 11 13 12 6 5 8 5 2 1 1 1 2 3 3 3 4 4 5 4 5 5 6 7 8 7 5 6 4
5 1 3 4 6 5 5 5 3 2 2 1 2 6 8 6 6 5 7 7 6 3 3 3 3 4 4 3 3 3 4 4 4 4 5 5 5 6 7 8 7 6 5
8 8 9 7 8 6 5 4 2 3 3 2 1 6 5 2 5 5 2 1 2 4 4 5 5 4 3 4 4 5 6 5 6 6 6 6 7 7 7 7 8 8 7
8 8 10 9 8 7 5 4 4 5 5 4 2 6 5 3 4 3 4 3 4 4 4 4 4 4 4 5 5 5 6 6 7 7 7 7 7 7 8 8 8 8 8
10 9 9 10 9 6 5 6 7 7 6 5 4 2 6 4 3 2 2 2 2 2 2 2 3 4 4 4 4 4 5 5 6 7 7 7 7 7 7 7 7 8 7
12 12 11 10 10 9 9 9 9 8 7 6 5 4 4 3 3 3 2 0 0 0 0 1 2 4 3 2 2 2 5 6 7 8 8 7 8 7 7 7 7 8 7
13 12 12 11 11 10 10 9 9 8 7 6 5 5 5 4 4 3 2 2 2 2 3 3 3 4 4 4 2 5 8 7 5 5 7 6 7 7 7 7 6 7 8
15 14 12 11 11 10 10 9 8 8 7 6 5 5 5 5 4 3 3 3 3 3 3 3 5 6 5 6 5 11 13 9 5 1 4 6 7 7 6 6 8 7 8
Wind_Direction
85 78 84 88 94 88 74 62 52 31 359 7 351 335 322 315 331 327 307 298 301 306 312 315 316 312 309 303 295 282 268 251 251 254 229 164 147 143 155 164 156 167 178
82 89 90 80 73 85 86 68 48 31 2 3 351 348 341 358 352 337 329 337 333 334 340 344 340 336 336 322 307 289 277 260 246 252 231 179 166 158 161 181 174 189 190
75 94 104 101 89 78 78 67 38 25 19 9 5 4 1 3 5 357 346 342 347 352 357 356 354 354 347 337 321 312 297 282 255 245 237 197 178 174 171 195 213 211 210
29 87 94 92 106 106 90 63 39 22 21 14 7 7 10 31 21 5 349 345 2 7 10 13 21 14 358 341 337 340 324 309 286 255 239 200 180 179 179 190 210 220 229
13 53 77 87 98 98 86 63 38 4 22 22 6 21 24 52 27 6 345 359 15 14 16 24 42 18 359 350 357 348 344 338 329 298 255 211 187 178 192 186 191 198 238
36 54 62 61 72 66 48 46 33 25 26 13 13 43 44 39 12 6 2 350 10 17 11 1 43 35 359 339 330 354 10 7 353 348 330 284 192 190 187 178 173 176 209
55 58 57 49 55 47 19 39 39 31 32 19 16 46 77 51 9 1 358 342 11 24 20 11 22 27 14 350 339 351 21 22 20 21 35 27 31 16 166 167 178 184 180
112 90 79 60 52 45 45 46 36 29 29 24 23 35 70 55 14 2 347 334 37 48 40 20 28 26 8 351 356 48 54 33 29 42 43 35 32 16 28 108 156 147 118
114 83 73 60 56 61 69 60 43 40 34 26 32 40 57 49 20 9 356 323 63 83 76 47 31 25 5 3 14 29 42 53 63 73 66 59 48 39 27 64 108 143 153
110 95 78 61 55 61 82 73 57 48 44 34 45 43 49 44 25 17 3 348 7 45 114 96 53 29 12 12 14 19 13 354 344 322 162 226 195 75 46 37 45 87 140
100 92 94 91 97 90 81 83 91 80 65 57 58 54 54 42 29 23 18 14 357 359 31 61 41 13 6 360 2 14 341 315 307 300 224 163 134 90 71 53 43 48 78
105 99 97 87 72 93 98 89 85 96 91 75 71 64 52 41 30 14 13 15 5 9 20 28 17 359 351 340 340 340 341 342 345 5 31 56 65 64 74 78 62 57 76
120 113 110 104 87 84 95 98 90 90 93 87 81 77 60 41 25 9 6 5 4 6 7 3 358 355 346 338 342 338 337 347 3 10 7 19 82 116 142 132 128 96 77
139 131 131 122 115 100 88 91 90 81 87 92 90 89 82 60 35 14 2 1 359 0 351 339 337 352 358 351 349 352 357 1 357 340 327 332 344 329 290 160 189 194 154
154 155 147 131 121 118 101 74 81 84 88 101 103 106 110 100 84 25 2 351 348 354 338 325 340 353 359 360 2 0 7 8 2 350 348 342 344 351 341 1 7 334 143
165 164 159 152 153 148 142 133 61 90 120 108 119 130 130 143 175 236 289 296 306 329 334 309 321 339 341 345 350 354 3 7 1 357 352 352 350 349 335 323 309 307 318
171 176 178 168 166 178 175 169 167 168 203 228 222 219 210 189 211 239 261 285 290 296 282 275 274 301 329 336 330 330 343 352 352 352 350 351 349 341 335 334 324 316 305
206 172 207 196 194 195 191 198 189 182 190 207 220 225 227 233 243 252 266 294 284 250 241 257 246 230 280 320 336 341 341 341 343 342 340 343 346 343 343 344 346 339 320
239 213 211 229 227 216 213 227 213 190 205 190 178 192 219 235 248 254 254 259 279 301 312 350 46 48 11 13 6 351 338 336 338 340 339 341 348 346 341 339 347 0 348
224 215 238 254 252 227 221 241 240 211 242 250 165 161 181 220 256 241 211 235 267 320 5 19 38 37 32 21 3 348 335 342 349 356 359 360 2 358 346 344 354 3 3
220 198 203 238 256 253 237 244 262 278 283 287 74 113 144 252 296 306 300 265 358 15 17 13 15 23 20 12 15 5 355 5 17 16 15 11 5 1 354 353 355 359 2
237 206 199 223 239 242 236 239 250 256 263 270 166 151 176 237 285 323 4 25 35 36 29 13 350 360 31 35 20 1 0 23 30 22 9 3 0 357 354 355 355 355 0
241 243 222 220 230 219 216 242 254 260 261 264 271 206 183 236 281 313 333 19 50 34 27 7 337 341 35 38 14 8 18 35 21 20 9 359 351 343 342 344 345 346 354
229 235 239 235 230 229 227 229 236 244 250 256 256 262 262 255 266 268 271 283 310 338 14 319 305 313 325 329 335 48 63 48 23 21 8 339 330 335 341 342 342 346 348
235 235 234 237 239 239 238 236 236 240 242 246 250 253 258 259 259 261 240 217 230 241 248 250 253 264 265 263 229 135 126 108 74 22 343 327 326 329 334 337 341 339 337
228 236 238 235 234 236 239 240 238 236 237 238 241 244 252 257 257 254 242 224 227 232 237 249 252 253 249 241 206 160 156 154 144 100 329 316 314 318 333 330 323 323 325
Height
1500 1501 1502 1503 1503 1504 1504 1504 1504 1504 1504 1503 1503 1502 1501 1501 1500 1499 1498 1497 1497 1497 1496 1495 1494 1493 1492 1491 1491 1490 1489 1489 1488 1489 1492 1492 1492 1493 1494 1495 1496 1497 1498
1500 1501 1502 1503 1503 1504 1503 1503 1503 1503 1503 1503 1502 1501 1500 1499 1498 1497 1496 1495 1494 1494 1493 1492 1491 1490 1488 1487 1486 1485 1484 1484 1485 1484 1487 1488 1488 1490 1492 1493 1495 1497 1498
1500 1501 1502 1502 1502 1502 1502 1502 1503 1503 1502 1502 1501 1500 1499 1498 1497 1495 1494 1493 1492 1491 1490 1489 1488 1486 1485 1484 1482 1481 1480 1480 1480 1480 1481 1483 1484 1486 1488 1490 1493 1495 1497
1500 1500 1501 1501 1501 1502 1502 1502 1502 1502 1502 1501 1500 1500 1499 1497 1496 1494 1493 1492 1491 1490 1489 1487 1486 1485 1483 1481 1480 1478 1477 1476 1475 1476 1476 1478 1479 1482 1484 1486 1489 1492 1495
1499 1499 1499 1500 1500 1501 1501 1501 1501 1501 1501 1500 1500 1499 1498 1497 1495 1493 1492 1492 1490 1489 1488 1486 1485 1484 1482 1480 1478 1476 1475 1474 1473 1472 1473 1474 1475 1477 1479 1481 1484 1488 1491
1497 1498 1498 1499 1499 1500 1500 1500 1500 1501 1500 1500 1500 1499 1498 1496 1495 1494 1493 1492 1490 1489 1488 1486 1485 1483 1481 1480 1478 1476 1474 1473 1472 1471 1471 1471 1472 1473 1476 1478 1481 1484 1486
1496 1497 1497 1498 1498 1499 1499 1499 1499 1500 1500 1500 1500 1499 1498 1497 1496 1495 1494 1492 1491 1490 1488 1487 1485 1483 1481 1480 1478 1477 1475 1473 1473 1472 1471 1470 1470 1471 1473 1475 1477 1479 1482
1496 1496 1496 1496 1497 1497 1497 1498 1498 1498 1499 1499 1499 1498 1498 1498 1497 1496 1495 1494 1493 1491 1490 1488 1486 1484 1482 1481 1479 1478 1477 1475 1473 1472 1472 1471 1471 1471 1472 1474 1475 1477 1480
1495 1495 1495 1495 1496 1496 1496 1496 1497 1497 1498 1498 1498 1498 1498 1498 1497 1497 1496 1495 1495 1493 1492 1490 1488 1486 1485 1483 1481 1480 1479 1477 1476 1475 1474 1473 1473 1472 1472 1473 1474 1476 1477
1494 1494 1494 1494 1495 1495 1495 1495 1495 1496 1496 1497 1497 1497 1497 1497 1497 1497 1497 1496 1496 1495 1493 1492 1490 1489 1487 1485 1484 1482 1481 1480 1479 1478 1478 1476 1475 1474 1474 1474 1474 1475 1476
1493 1493 1493 1494 1494 1494 1494 1494 1494 1495 1495 1496 1496 1497 1497 1497 1497 1497 1496 1496 1496 1495 1494 1493 1492 1491 1489 1488 1486 1485 1483 1482 1481 1479 1479 1479 1478 1477 1476 1476 1475 1475 1475
1492 1492 1493 1493 1494 1494 1493 1494 1494 1494 1495 1495 1495 1496 1496 1496 1496 1496 1496 1496 1495 1495 1494 1493 1492 1492 1491 1489 1488 1486 1485 1483 1482 1481 1481 1481 1480 1480 1479 1478 1477 1476 1476
1491 1491 1492 1492 1493 1493 1493 1493 1493 1494 1494 1495 1495 1495 1495 1495 1495 1495 1495 1495 1494 1494 1493 1493 1492 1491 1490 1489 1488 1487 1486 1485 1484 1483 1482 1482 1482 1481 1481 1480 1479 1478 1478
1490 1491 1491 1492 1492 1493 1493 1493 1494 1494 1494 1494 1495 1495 1495 1495 1495 1494 1494 1494 1493 1493 1492 1491 1491 1490 1489 1489 1488 1487 1486 1485 1485 1484 1484 1483 1482 1482 1481 1481 1480 1480 1480
1490 1490 1491 1492 1492 1493 1493 1493 1494 1494 1494 1494 1494 1495 1495 1495 1494 1494 1494 1493 1492 1492 1490 1490 1489 1488 1488 1487 1487 1486 1485 1485 1484 1484 1483 1483 1482 1482 1482 1481 1481 1481 1481
1490 1491 1491 1492 1493 1494 1494 1494 1494 1494 1494 1495 1495 1495 1495 1495 1494 1493 1493 1492 1491 1490 1489 1488 1488 1487 1487 1486 1485 1485 1484 1484 1483 1483 1482 1482 1481 1481 1481 1481 1481 1481 1481
1490 1491 1491 1492 1493 1493 1494 1494 1494 1494 1494 1494 1494 1495 1495 1494 1494 1493 1492 1491 1490 1489 1488 1487 1487 1487 1486 1485 1484 1484 1483 1483 1482 1482 1481 1481 1480 1480 1480 1479 1479 1480 1480
1490 1490 1491 1492 1492 1493 1493 1493 1493 1492 1492 1492 1493 1493 1493 1494 1493 1492 1491 1490 1489 1488 1487 1487 1486 1486 1485 1485 1484 1483 1483 1482 1481 1481 1480 1479 1479 1478 1478 1478 1478 1477 1477
1488 1489 1490 1490 1491 1491 1492 1492 1492 1492 1492 1491 1491 1491 1492 1492 1492 1491 1490 1489 1488 1488 1487 1487 1486 1485 1485 1484 1484 1483 1482 1481 1480 1479 1479 1478 1477 1477 1477 1476 1476 1475 1475
1486 1486 1487 1488 1489 1489 1489 1490 1490 1490 1490 1491 1490 1490 1490 1490 1490 1489 1488 1487 1487 1487 1487 1486 1485 1485 1484 1483 1483 1482 1482 1481 1480 1479 1477 1476 1476 1476 1475 1475 1474 1473 1473
1483 1484 1485 1485 1486 1486 1487 1487 1488 1488 1488 1489 1489 1488 1489 1489 1489 1488 1487 1487 1486 1486 1485 1485 1484 1484 1483 1482 1482 1481 1481 1480 1479 1478 1477 1476 1475 1474 1474 1473 1472 1472 1472
1480 1480 1481 1482 1483 1483 1484 1484 1485 1485 1486 1486 1486 1485 1485 1486 1486 1486 1486 1485 1484 1484 1484 1483 1483 1483 1482 1481 1480 1480 1480 1479 1477 1477 1476 1476 1475 1474 1473 1472 1472 1471 1470
1475 1476 1477 1478 1479 1479 1480 1481 1482 1482 1482 1483 1483 1483 1482 1483 1483 1483 1483 1483 1482 1482 1482 1481 1481 1481 1480 1479 1479 1478 1478 1477 1477 1476 1475 1475 1474 1473 1473 1472 1471 1470 1469
1470 1471 1472 1473 1474 1475 1475 1476 1477 1478 1478 1478 1479 1479 1479 1479 1479 1479 1479 1479 1479 1479 1479 1478 1478 1478 1478 1477 1477 1476 1475 1475 1475 1474 1473 1473 1473 1472 1471 1471 1470 1469 1468
1464 1465 1466 1467 1468 1469 1470 1471 1472 1472 1473 1473 1474 1474 1475 1475 1475 1475 1475 1475 1475 1475 1475 1475 1475 1475 1474 1474 1474 1473 1473 1473 1473 1472 1472 1471 1471 1470 1470 1469 1468 1468 1467
1457 1458 1460 1461 1462 1463 1464 1465 1466 1466 1467 1467 1468 1469 1469 1470 1470 1470 1471 1471 1471 1471 1471 1471 1471 1471 1471 1471 1470 1470 1470 1470 1470 1470 1469 1469 1468 1468 1468 1467 1466 1466 1465